Lid_Strength_Index
2 4 5 6 9 10 12 10 9 8 8 7 7 8 8 7 8 9 3 1 0 -0 -0 -1 -1 -1 -1 -2 -1 -1 -1 -2 -1 -1 -1 -1 -1 -1 -2 -2 -2 -2 -2 -2 -1 -1 -0 -1 -1
4 4 6 9 12 14 12 11 9 8 7 7 8 7 7 7 5 4 2 1 -0 -0 -1 -1 -0 -1 -1 -2 -2 -1 -1 -2 -1 -1 -1 -2 -2 -1 -1 -2 -2 -2 -2 -2 -1 -0 0 0 -1
4 6 7 11 14 14 12 10 10 8 8 7 8 7 7 6 5 3 2 0 -0 -0 -1 -1 -0 -1 -1 -1 -1 -1 -2 -2 -2 -1 -1 -2 -2 -2 -2 -2 -2 -2 -2 -2 -1 -0 0 1 -0
5 7 9 12 12 11 10 10 9 9 8 8 8 8 7 5 5 3 1 -0 -0 -0 -1 -0 -1 -1 -1 -1 -2 -2 -2 -2 -2 -2 -2 -2 -2 -2 -1 -1 -1 -2 -2 -2 -1 -0 0 1 -0
8 9 12 12 12 11 11 10 9 9 9 8 8 8 7 5 2 1 0 -0 0 -0 -1 -1 -0 -1 -1 -1 -2 -1 -1 -1 -1 -2 -2 -2 -2 -1 -1 -1 -1 -2 -2 -1 -0 0 0 0 -0
9 11 13 14 12 11 10 10 9 9 9 8 8 8 7 6 3 1 0 0 0 -0 -1 -1 1 1 -0 -1 -1 -1 -1 -1 -1 -1 -2 -2 -2 -2 -1 -2 -1 -2 -1 -2 -1 0 1 1 -0
10 13 14 14 13 12 10 10 10 9 10 9 7 9 7 7 6 1 2 1 0 0 -0 -1 -0 0 2 1 -0 -1 -1 -1 -1 -1 -1 -1 -2 -1 -1 -1 -2 -1 -1 -1 -2 -1 -0 1 1
10 12 13 14 13 12 10 10 9 9 9 8 7 9 8 8 5 2 2 2 1 1 1 0 -0 -0 -1 -1 2 1 0 -0 -0 -0 0 1 0 0 0 -0 -1 -1 -1 -1 -2 -1 0 1 2
9 14 15 14 13 12 10 10 9 9 9 9 9 9 9 7 6 5 5 4 3 3 3 1 0 -0 -1 -1 1 2 1 1 1 1 2 2 -0 0 0 0 -1 -1 -1 -1 -1 -1 1 5 6
12 14 14 12 12 11 10 10 10 10 10 10 9 9 9 9 9 10 10 9 9 9 8 6 2 0 -0 -0 -1 -0 -0 -1 -1 -1 -0 0 0 1 1 1 0 -1 0 -1 -1 -0 2 6 7
11 13 13 11 11 10 10 11 10 10 11 10 10 11 10 10 10 10 10 10 10 10 9 8 7 2 1 -0 -1 -0 -0 -0 -1 -1 -1 0 1 2 1 1 1 1 2 1 1 2 3 5 7
12 10 11 10 10 10 11 10 11 10 11 11 11 11 11 12 12 12 12 11 11 10 9 8 7 6 0 -0 0 -1 -0 0 -0 0 1 1 2 2 2 2 2 2 1 2 3 3 4 4 7
11 11 11 10 11 11 11 11 11 13 11 11 11 12 13 13 13 12 12 11 11 11 10 9 8 6 0 1 0 -0 -0 -0 0 1 1 1 2 2 3 2 2 2 2 3 3 4 3 4 5
11 11 11 11 11 11 11 12 11 12 11 12 12 13 13 14 14 13 13 13 12 11 10 9 6 4 0 1 1 1 0 0 0 0 1 1 1 1 3 3 3 3 3 4 4 4 3 4 6
12 13 12 12 12 12 11 13 14 12 12 14 14 14 14 14 14 14 14 14 13 13 11 9 5 1 0 2 3 4 5 5 5 4 4 2 2 2 2 3 3 4 4 5 5 6 5 5 6
13 14 14 12 12 12 12 14 14 13 13 15 15 15 14 14 14 14 14 14 13 13 12 10 5 4 5 6 8 8 8 8 8 7 7 6 4 3 3 3 5 4 5 5 5 5 5 6 7
15 16 16 14 13 13 13 14 15 13 15 16 16 15 15 15 14 14 14 14 13 13 12 11 9 8 8 8 8 9 10 10 9 9 9 9 7 5 5 5 5 4 5 6 5 6 7 6 7
17 18 17 17 15 14 15 14 16 15 16 17 17 16 16 16 16 15 15 14 14 13 12 11 10 9 8 9 10 10 11 11 12 12 12 11 10 8 7 7 7 7 7 8 8 8 8 9 9
16 17 17 16 15 15 15 15 16 16 16 17 17 17 16 16 15 15 15 15 14 14 13 13 12 11 10 11 11 12 14 14 14 14 14 13 13 12 11 11 10 9 10 9 9 9 9 9 9
17 18 18 16 15 15 16 16 17 17 17 17 17 17 16 16 16 16 16 16 16 15 14 14 13 13 12 12 13 13 14 15 15 15 15 15 14 14 14 13 13 13 12 12 11 10 10 10 10
18 18 18 17 16 16 17 17 18 17 17 16 16 16 16 16 17 17 17 17 16 16 16 15 15 14 14 13 13 14 14 15 15 15 15 15 15 14 14 14 14 14 14 14 14 12 12 12 10
18 16 16 16 17 18 17 20 18 18 18 17 17 17 17 17 17 17 17 17 17 17 16 15 15 15 15 14 15 15 16 16 16 15 15 14 14 14 14 14 14 14 14 14 14 14 14 12 14
16 15 16 16 17 19 18 20 18 18 19 18 17 17 17 16 17 17 17 17 17 16 16 15 15 15 15 15 14 15 15 15 15 14 14 14 14 13 14 14 14 14 14 14 14 14 14 14 15
15 16 16 18 19 21 18 18 18 19 17 17 16 16 16 16 16 16 16 16 17 16 16 15 15 15 14 14 14 15 15 15 14 15 15 14 14 14 14 14 14 14 14 14 14 14 14 14 15
16 17 20 21 21 20 19 19 17 16 16 15 16 16 16 16 16 16 17 17 17 17 16 15 15 15 14 14 14 14 14 14 14 14 14 14 14 14 14 14 14 14 14 13 13 14 14 14 15
17 16 19 23 23 21 18 20 16 16 15 14 14 15 15 16 16 16 16 16 16 16 16 15 15 15 14 14 14 14 14 14 14 13 13 14 13 13 13 14 14 14 14 14 14 14 14 14 15
17 18 16 20 21 22 19 17 16 17 17 16 16 16 16 16 16 16 16 16 16 16 16 15 15 15 15 14 14 14 13 13 14 14 13 13 13 13 13 13 14 14 14 14 14 15 15 15 15
16 15 18 19 24 25 20 19 17 18 17 17 16 16 16 16 16 16 15 16 15 15 15 15 15 15 14 14 14 14 14 14 14 14 14 14 14 14 14 14 14 14 14 14 14 14 14 15 15
17 17 17 17 19 22 24 20 16 15 15 17 16 15 15 15 15 15 15 15 15 15 15 15 15 15 15 14 14 14 14 14 14 14 14 14 14 14 14 14 14 14 14 14 14 14 14 14 14
16 16 16 18 20 20 20 18 15 14 15 15 15 14 14 14 14 14 15 15 15 15 15 15 15 15 14 14 14 14 14 14 14 14 14 14 14 14 14 14 14 14 14 14 14 15 14 15 15